Address 0xd7952c2575e54cb0417590339a97161e05581bc2 3

Overview

Balance:
0.102553346554163306 AVAX

AVAX Value:
$6.47 (@ $63.13/AVAX)
Txn Hash Method
Block
From
To
Value [Txn Fee]
0xaa34e79e81b6e384d5c3a5063dd982a659fcef0148fe5923500ef7bd5426648bTransfer99191302022-01-22 19:41:504 days 6 hrs ago0xd7952c2575e54cb0417590339a97161e05581bc2OUT0x3de49fbc6766b63c5fa227b254bcc466b9c5c2152.58 AVAX0.00052525
0x009a51cefa7070513863930ac8fa68f1620cb7737dc27bd102b6379b361907e4Swap Exact Token...99190962022-01-22 19:40:454 days 6 hrs ago0xd7952c2575e54cb0417590339a97161e05581bc2OUT Trader Joe: Router0 AVAX0.003580325
0x60c4862335ff6d1996957b2ac77a5f3065dfd07ab2bffdea7b90004d37180f89Any Swap Out Und...92659232022-01-07 19:13:2819 days 6 hrs ago0xd7952c2575e54cb0417590339a97161e05581bc2OUT 0xb0731d50c681c45856bfc3f7539d5f61d4be81d80 AVAX0.0023794 25
0xbb1e711d3a677bd8ee660e10a3d7ac7be1c3ed2e4c9115e71a3510ebc06a15f9Swap Exact AVAX ...92659082022-01-07 19:12:5819 days 6 hrs ago0xd7952c2575e54cb0417590339a97161e05581bc2OUT Trader Joe: Router0.48 AVAX0.0031579 25
0xf6645a950c46036723c3159684cc9842a66f602929f7ccb60c07e79fa84be785Transfer92658682022-01-07 19:11:3319 days 6 hrs ago0x9da5812111dcbd65ff9b736874a89751a4f0a2f8 IN 0xd7952c2575e54cb0417590339a97161e05581bc20.55624 AVAX0.000525 25.000000001
0x8f76b2d7cf902637bb24e1a5e0ef905bdb65575177edce438cf78994a6acb0fdSwap Exact AVAX ...92651702022-01-07 18:48:1419 days 7 hrs ago0xd7952c2575e54cb0417590339a97161e05581bc2OUT Trader Joe: Router0.09 AVAX0.003423045378 25.767406721
0xe25d41ca6c0122c8521737641d8b98565d8cf23099398950fdec0135ca969d53Any Swap Out Und...91798472022-01-05 19:35:5821 days 6 hrs ago0xd7952c2575e54cb0417590339a97161e05581bc2OUT 0xb0731d50c681c45856bfc3f7539d5f61d4be81d80 AVAX0.0023794 25
0x251c8d188a4fd6133b06e240472bc45b19790aa1691bb6ec65250d55d0f7be1eSwap Exact AVAX ...91797092022-01-05 19:31:1621 days 6 hrs ago0xd7952c2575e54cb0417590339a97161e05581bc2OUT Trader Joe: Router5.2 AVAX0.0035854 25
0xe710b8b300248108acbb6cc48d18cb69053bd061f7243e5cf5d537563867722dSwap Exact Token...91795172022-01-05 19:24:3621 days 6 hrs ago0xd7952c2575e54cb0417590339a97161e05581bc2OUT Trader Joe: Router0 AVAX0.003413725 25
0x11eaa6637098b3957fb57e7f21efda8a5037bc7076ffeb9188a701f4cc92a96eSwap Exact Token...91793232022-01-05 19:18:0121 days 6 hrs ago0xd7952c2575e54cb0417590339a97161e05581bc2OUT Trader Joe: Router0 AVAX0.0035803 25
0xcff6a949a1b832de9708a51f110428abc21ae2244f4abbfda65ec7f053377a51Swap Exact Token...91787682022-01-05 18:59:0221 days 6 hrs ago0xd7952c2575e54cb0417590339a97161e05581bc2OUT Trader Joe: Router0 AVAX0.0031455 25
0x927f90d8518bd5af2e0968f0013cefa2f88ee492990760514ca7a4cb955da3ceApprove91787542022-01-05 18:58:3621 days 6 hrs ago0xd7952c2575e54cb0417590339a97161e05581bc2OUT 0x6e84a6216ea6dacc71ee8e6b0a5b7322eebc0fdd0 AVAX0.001162675 25
0x97bcd8ee5a6b0b63e0e1d31f0884a568a4b345f58d900300b179082fc5b54f23Leave91787302022-01-05 18:57:4721 days 6 hrs ago0xd7952c2575e54cb0417590339a97161e05581bc2OUT 0x57319d41f71e81f3c65f2a47ca4e001ebafd4f330 AVAX0.0017658 25
0x90722efa358ae15700949dad243fe12a7847755d4f0461b798a1475ca9540e09Cook91787002022-01-05 18:56:4921 days 6 hrs ago0xd7952c2575e54cb0417590339a97161e05581bc2OUT Abracadabra: xJOE Cauldron0 AVAX0.003631225 25
0xe231c1f98fd3b91ce865a198e604bea06730362c0deca8f8c0a4741277bd7b3fAny Swap Out89379252021-12-31 4:01:2126 days 21 hrs ago0xd7952c2575e54cb0417590339a97161e05581bc2OUT 0xb0731d50c681c45856bfc3f7539d5f61d4be81d80 AVAX0.0010916 25
0x16a2871a64f1083a7748997cf66986b9e11d41a681538776c235d0fdfdcbccb7Cook89378952021-12-31 4:00:2326 days 21 hrs ago0xd7952c2575e54cb0417590339a97161e05581bc2OUT Abracadabra: xJOE Cauldron0 AVAX0.00341425 25
0x3111ff998b88b9a96b01938f7744c0617895e14447b0df8b756cf63f0d553109Any Swap Out84104062021-12-18 18:43:4039 days 7 hrs ago0xd7952c2575e54cb0417590339a97161e05581bc2OUT 0xb0731d50c681c45856bfc3f7539d5f61d4be81d80 AVAX0.0010913 25
0x44a99296545911ab36c72ae0abc314f61f77c9f1ed5d53d1abf724dbb5c8d410Cook84103432021-12-18 18:41:3239 days 7 hrs ago0xd7952c2575e54cb0417590339a97161e05581bc2OUT Abracadabra: xJOE Cauldron0 AVAX0.00341365 25
0x91d4a4a7696940993f6a12a6827eb8bbedb4a9bb387a7210cff51c90d8ae37f4Any Swap Out Und...79005142021-12-06 22:30:3051 days 3 hrs ago0xd7952c2575e54cb0417590339a97161e05581bc2OUT 0xb0731d50c681c45856bfc3f7539d5f61d4be81d80 AVAX0.002379425
0xc32d7b987185eaf063ad9aa5d9b8c2b0355e372bc09ed65cdf0d0f5ac603a950Swap Exact Token...79004942021-12-06 22:29:4651 days 3 hrs ago0xd7952c2575e54cb0417590339a97161e05581bc2OUT Trader Joe: Router0 AVAX0.003959325
0x4e9c6c688e0b3ab1a8489ba29cb7cc3b4e179279d49655e787a2a15806a5726dApprove79003622021-12-06 22:25:2851 days 3 hrs ago0xd7952c2575e54cb0417590339a97161e05581bc2OUT Abracadabra.money: MIM Token0 AVAX0.00117139664325.131334739
0x73fb2fcf16a5518105b3d161b8d9be125d829b302cd856027c27e302ce847e34Cook79002252021-12-06 22:21:0151 days 3 hrs ago0xd7952c2575e54cb0417590339a97161e05581bc2OUT Abracadabra: xJOE Cauldron0 AVAX0.005456425
0x62f9ca10473b8f36041c171d80f8cb03401cb9832a39269a27530be738f3b1d1Cook79001732021-12-06 22:19:1551 days 3 hrs ago0xd7952c2575e54cb0417590339a97161e05581bc2OUT Abracadabra: xJOE Cauldron0 AVAX0.00154959246325.097866342
0x25291cd9478db3a39b710729a8f3a2230ff6f44d34e2997d01b275817912f1fcCook79001732021-12-06 22:19:1551 days 3 hrs ago0xd7952c2575e54cb0417590339a97161e05581bc2OUT Abracadabra: xJOE Cauldron0 AVAX0.0126024525
0x86f1f934470829e3503159127adc097f96106fe4f450707bc9f44d4418d3a2b9Approve79001532021-12-06 22:18:3651 days 3 hrs ago0xd7952c2575e54cb0417590339a97161e05581bc2OUT 0x57319d41f71e81f3c65f2a47ca4e001ebafd4f330 AVAX0.00068561949625.768387874
[ Download CSV Export 
Latest 10 internal transactions
Parent Txn Hash Block From To Value
0x009a51cefa7070513863930ac8fa68f1620cb7737dc27bd102b6379b361907e499190962022-01-22 19:40:454 days 6 hrs ago Trader Joe: Router0xd7952c2575e54cb0417590339a97161e05581bc22.601025236282550836 AVAX
0xe710b8b300248108acbb6cc48d18cb69053bd061f7243e5cf5d537563867722d91795172022-01-05 19:24:3621 days 6 hrs ago Trader Joe: Router0xd7952c2575e54cb0417590339a97161e05581bc20.59553975316423914 AVAX
0x11eaa6637098b3957fb57e7f21efda8a5037bc7076ffeb9188a701f4cc92a96e91793232022-01-05 19:18:0121 days 6 hrs ago Trader Joe: Router0xd7952c2575e54cb0417590339a97161e05581bc24.61398484800734882 AVAX
0xb8ff046c8ce6a49c2043fec3e55e466a003f99b79a400fac57eeb07d40e242af75181592021-11-28 1:28:5560 days 25 mins ago Trader Joe: Router0xd7952c2575e54cb0417590339a97161e05581bc216.189433549869011642 AVAX
0xd9e7deab0717a1f37f601858920f06fa3f13face5d57632363b1252ed6e9963e75158892021-11-28 0:12:4960 days 1 hr ago Trader Joe: Router0xd7952c2575e54cb0417590339a97161e05581bc24.262691135173683845 AVAX
0x84856a1767e74f86dbde276cacabaead7bf624ff500b00ac632a63157d429a0775064022021-11-27 18:55:2460 days 6 hrs ago Trader Joe: Router0xd7952c2575e54cb0417590339a97161e05581bc215.656843860910831751 AVAX
0xaa51787f5b1ae2ace430febe0768532a3a5816752381ebd7dd119bacdbcd921875017652021-11-27 16:20:2960 days 9 hrs ago Trader Joe: Router0xd7952c2575e54cb0417590339a97161e05581bc242.493003559617782182 AVAX
0xdfbf765022d6806e6df74609961d810230c8494af68eb0ab2d197d370118328273776942021-11-24 18:52:4863 days 7 hrs ago Wrapped AVAX0xd7952c2575e54cb0417590339a97161e05581bc238.944874604625394512 AVAX
0x9032af62948ad637afbe6d7d2f4488e89e1dd636938ddc4a58fe41b3fb756b4b73776382021-11-24 18:50:5163 days 7 hrs ago Wrapped AVAX0xd7952c2575e54cb0417590339a97161e05581bc21.187065395374605656 AVAX
0x91fdac3c06670210664c3c0d2518288486a45f37cb221bc51462d97eba56995c73767642021-11-24 18:21:3863 days 7 hrs ago 0x9e4aabd2b3e60ee1322e94307d0776f2c8e6cfbb0xd7952c2575e54cb0417590339a97161e05581bc221.527947980214801676 AVAX
[ Download CSV Export 
Loading

Contract Name:
0

Compiler Version
0

Optimization Enabled:
0

Other Settings:
-NA-
Block Transaction Gas Used Reward
Age Block Fee Address BC Fee Address Voting Power Jailed Incoming
Block Uncle Number Difficulty Gas Used Reward
Loading
Make sure to use the "Vote Down" button for any spammy posts, and the "Vote Up" for interesting conversations.